Location: Mercogliano
(40.9167°N, 14.7333°E)
Time: 07:32:47
(UTC+00:00)

Ariane Rocket - Pass Details

Date: 18 September 2020
Orbit: 760 x 769 km, 98.7° (Epoch: 26 October)

Event Time Altitude Azimuth Distance (km) Brightness Sun altitude
Exits shadow 18:09:45 14° 133° (SE) 2,020 4.7 -13.0°
Maximum altitude 18:13:40 40° 69° (ENE) 1,125 3.5 -13.7°
Drops below altitude 10° 18:18:23 10° 1° (N) 2,311 5.7 -14.6°
Sets 18:20:49 0° 355° (N) 3,243 6.5 -15.0°
